User: anonymous   Login
Location: Innsbruck
(47.2657°N, 11.3914°E)
Time: 23:49:02
(UTC+01:00)
Language:

PRISM - Orbit

View from above orbital plane
View from above orbital plane
View from above satellite
View from above satellite

Ground track
Ground track

The orbit data is extracted from the following two-line orbital elements,

1 33493U 09002B   21335.46903834  .00002494  00000-0  21557-3 0  9996
2 33493  98.2101 306.2987 0016520  94.3773 265.9336 14.98125555699325
Epoch (UTC): 01 December 2021 11:15:24
Eccentricity: 0.0016520
inclination: 98.2101°
perigee height: 561 km
apogee height: 584 km
right ascension of ascending node: 306.2987°
argument of perigee: 94.3773°
revolutions per day: 14.98125555
mean anomaly at epoch: 265.9336°
orbit number at epoch: 69932

The dashed part of the orbit path shows where the satellite is in the earth's shadow,  

DLR